Location: Escondido Hill
(38.9119°N, 104.7815°W)
Time: 10:22:36
(UTC-06:00)

Envisat - Visible Passes

Search period start: 21 June 2018 00:00
Search period end: 01 July 2018 00:00
Orbit: 764 x 766 km, 98.2° (Epoch: 21 June)

Date Brightness Start Highest point End Pass type
(mag) Time Alt. Az. Time Alt. Az. Time Alt. Az.
22 Jun 5.5 21:27:37 10° SW 21:31:01 18° W 21:34:26 10° NW visible
25 Jun 5.3 21:15:48 10° SW 21:19:46 23° W 21:23:45 10° NW visible
27 Jun 5.7 21:43:29 10° WSW 21:45:35 12° W 21:47:42 10° WNW visible
28 Jun 4.9 21:04:09 10° SSW 21:08:32 29° W 21:12:56 10° NW visible
30 Jun 5.6 21:31:12 10° SW 21:34:18 16° W 21:37:27 10° NW visible
